Location: Unspecified
(0.0000°N, 0.0000°E)
Time: 04:53:01
(UTC+00:00)

CAPE 1 - Visible Passes

Search period start: 14 May 2026 00:00
Search period end: 24 May 2026 00:00
Orbit: 619 x 737 km, 98.4° (Epoch: 13 May)

Date Brightness Start Highest point End Pass type
(mag) Time Alt. Az. Time Alt. Az. Time Alt. Az.
14 May ? 04:25:19 10° NNW 04:25:40 12° NW 04:25:40 12° NW visible
15 May ? 03:22:17 10° NNE 03:22:50 13° NNE 03:22:50 13° NNE visible
16 May ? 03:57:17 10° N 03:58:22 17° N 03:58:22 17° N visible
17 May ? 04:33:48 10° NW 04:33:53 10° NW 04:33:53 10° NW visible
18 May ? 03:30:08 10° NNE 03:31:03 16° NNE 03:31:03 16° NNE visible
19 May ? 04:05:23 10° N 04:06:34 17° NNW 04:06:34 17° NNW visible
21 May ? 03:38:01 10° NNE 03:39:14 19° NNE 03:39:14 19° NNE visible
22 May ? 04:13:33 10° NNW 04:14:45 17° NNW 04:14:45 17° NNW visible
23 May ? 03:11:25 10° NE 03:11:54 13° NE 03:11:54 13° NE visible
